JST891 YHBA-YSSY

Flight info

Callsign JST891
Flight time N/A
Altitude 35000
Route DCT HAAVI T55 ITIDE DCT MUDDL DCT HUUGO/N0460F340 H91 IGDAM/N0446F330 H652 BOREE DCT
Aircraft A320/M-SDE3FGHIRWY/LB1

Departure

Time 2026-04-15 02:14
Airport Hervey Bay Airport (YHBA)

Arrival

Time N/A
Airport Sydney Kingsford Smith International Airport (YSSY)
Time Latitude Longitude Altitude Speed Heading
2026-04-15 02:03 -25.32027 152.88483 62 ft 0 kts 69°
2026-04-15 02:09 -25.32048 152.88496 57 ft 7 kts 201°
2026-04-15 02:10 -25.32107 152.88465 58 ft 11 kts 204°
2026-04-15 02:10 -25.32173 152.88411 56 ft 13 kts 255°
2026-04-15 02:10 -25.32135 152.88311 58 ft 17 kts 299°
2026-04-15 02:10 -25.32074 152.88190 60 ft 19 kts 299°
2026-04-15 02:11 -25.32008 152.88056 64 ft 21 kts 298°
2026-04-15 02:11 -25.31933 152.87907 59 ft 24 kts 298°
2026-04-15 02:11 -25.31850 152.87741 58 ft 26 kts 298°
2026-04-15 02:11 -25.31758 152.87555 48 ft 23 kts 299°
2026-04-15 02:12 -25.31678 152.87392 53 ft 25 kts 299°
2026-04-15 02:12 -25.31611 152.87257 56 ft 13 kts 298°
2026-04-15 02:12 -25.31578 152.87179 58 ft 6 kts 352°
2026-04-15 02:12 -25.31578 152.87193 55 ft 1 kts 118°
2026-04-15 02:13 -25.31580 152.87196 55 ft 2 kts 119°
2026-04-15 02:13 -25.31664 152.87362 52 ft 65 kts 119°
2026-04-15 02:13 -25.32011 152.88064 65 ft 139 kts 118°
2026-04-15 02:13 -25.32523 152.89092 584 ft 155 kts 118°
2026-04-15 02:14 -25.33042 152.90138 1433 ft 153 kts 118°
2026-04-15 02:14 -25.33563 152.91188 1908 ft 164 kts 118°
2026-04-15 02:14 -25.34147 152.92369 2125 ft 186 kts 118°
2026-04-15 02:14 -25.34804 152.93677 2319 ft 210 kts 122°
2026-04-15 02:15 -25.35902 152.94877 2638 ft 236 kts 146°
2026-04-15 02:15 -25.37422 152.95749 3139 ft 254 kts 156°
2026-04-15 02:15 -25.39124 152.96325 3947 ft 261 kts 174°
2026-04-15 02:15 -25.40932 152.96016 4821 ft 267 kts 201°
2026-04-15 02:16 -25.42497 152.94937 5695 ft 271 kts 214°
2026-04-15 02:16 -25.44160 152.93959 6511 ft 274 kts 193°
2026-04-15 02:16 -25.46059 152.93848 7258 ft 276 kts 168°